Regional Weather Roundup
Issued by NWS

Home | Current Version | Previous Version | Graphics & Text | Print | Product List | Glossary Off
Versions: 1 2 3 4 5 6 7 8 9 10 11 12 13 14 15 16 17 18 19 20 21 22 23 24 25 26 27 28 29 30 31 32 33 34 35 36 37 38 39 40 41 42 43 44 45 46 47 48 49 50

000
ASUS43 KMKX 250000
RWRWI

WISCONSIN REGIONAL WEATHER ROUNDUP
NATIONAL WEATHER SERVICE MILWAUKEE/SULLIVAN WI
700 PM CDT SUN JUL 24 2016

NOTE: "FAIR" INDICATES FEW OR NO CLOUDS BELOW 12,000 FEET WITH NO
SIGNIFICANT WEATHER AND/OR OBSTRUCTIONS TO VISIBILITY.

WIZ001-002-006>008-014>016-023>028-250100-
NORTHWEST WISCONSIN

CITY           SKY/WX    TMP DP  RH WIND       PRES   REMARKS
SUPERIOR ARPT  MOSUNNY   79  63  56 W8        29.84S HX  81
ASHLAND        MOSUNNY   80  61  52 W12       29.85R HX  81
6HR MIN TEMP:  80; 6HR MAX TEMP:  85;

HAYWARD        MOSUNNY   78  60  53 W9G16     29.89S
6HR MIN TEMP:  78; 6HR MAX TEMP:  81;

SIREN          NOT AVBL
CUMBERLAND     MOSUNNY   75  61  60 W8        29.92S
RICE LAKE      MOSUNNY   76  61  58 W7        29.92F
CHETEK         MOSUNNY   79  63  57 NW9       29.91S HX  80
LADYSMITH      SUNNY     79  61  54 W14G21    29.92R HX  80
EAU CLAIRE     NOT AVBL
MENOMONIE      SUNNY     84  61  45 W15G21    29.91F HX  84
NEW RICHMOND   MOSUNNY   78  62  57 W10       29.93S HX  80
OSCEOLA        CLOUDY    80  61  53 W7        29.95S HX  81
$$

WIZ003>005-009-010-017-018-250100-
NORTH CENTRAL WISCONSIN

CITY           SKY/WX    TMP DP  RH WIND       PRES   REMARKS
MANITOWISH WTR MOSUNNY   76  62  60 W9        29.87R
ARBOR VITAE    SUNNY     80  64  57 W9        29.88R HX  81
WOODRUFF       SUNNY     80  64  57 W9        29.88R HX  81
RHINELANDER    SUNNY     78  62  57 W15G24    29.88R HX  80
6HR MIN TEMP:  78; 6HR MAX TEMP:  85;

EAGLE RIVER    MOSUNNY   78  61  56 W9G17     29.86R HX  80
LAND O LAKES   PTSUNNY   79  61  54 NW9G18    29.86R HX  81
PHILLIPS       CLOUDY    78  64  62 W8        29.89R HX  80
TOMAHAWK       MOSUNNY   79  63  57 W7G20     29.89R HX  80
MEDFORD        MOSUNNY   78  64  62 W14G20    29.90R HX  80
MERRILL        MOSUNNY   80  65  61 W13G21    29.88R HX  82
$$

WIZ029-030-035-036-043>047-250100-
CENTRAL WISCONSIN

CITY           SKY/WX    TMP DP  RH WIND       PRES   REMARKS
WAUSAU         SUNNY     81  63  54 W14G24    29.86R HX  82
6HR MIN TEMP:  76; 6HR MAX TEMP:  85; 6HR PCP: TRACE;

MOSINEE        SUNNY     81  64  57 W16G23    29.89R HX  82
MARSHFIELD     CLOUDY    80  64  58 W8        29.89S HX  82
6HR MIN TEMP:  80; 6HR MAX TEMP:  86;

STEVENS POINT  PTSUNNY   81  65  59 W13G18    29.88R HX  83
WAUPACA        MOSUNNY   87  65  47 W9G20     29.85R HX  88
WAUTOMA        MOSUNNY   84  68  58 W8        29.87R HX  87
6HR MIN TEMP:  84; 6HR MAX TEMP:  90;

WISC RAPIDS    MOSUNNY   83  62  49 NW10G20   29.89R HX  84
6HR MIN TEMP:  83; 6HR MAX TEMP:  88;

CAMP DOUGLAS   NOT AVBL
$$

WIZ011>013-019>022-031-037>040-048>050-250100-
NORTHEAST WISCONSIN

CITY           SKY/WX    TMP DP  RH WIND       PRES   REMARKS
ANTIGO         MOSUNNY   78  65  63 W12G20    29.87R HX  80
SHAWANO        SUNNY     85  65  50 W10G17    29.83R HX  87
OCONTO         SUNNY     85  74  70 W6        29.78R HX  92
STURGEON BAY   SUNNY     84  75  74 W8        29.80R HX  92
6HR MIN TEMP:  75; 6HR MAX TEMP:  85;

GREEN BAY      SUNNY     83  73  72 W10       29.81R HX  89
6HR MIN TEMP:  76; 6HR MAX TEMP:  86; 6HR PCP:  0.03;

MANITOWOC      NOT AVBL
APPLETON       NOT AVBL
CLINTONVILLE   SUNNY     84  63  48 W13G20    29.83R HX  85
OSHKOSH        SUNNY     84  70  62 W10       29.83R HX  88
6HR MIN TEMP:  83; 6HR MAX TEMP:  89;

$$

WIZ032>034-041-042-053>061-250100-
SOUTHWEST WISCONSIN

CITY           SKY/WX    TMP DP  RH WIND       PRES   REMARKS
LA CROSSE      MOSUNNY   83  66  56 W6        29.89F HX  85
6HR MIN TEMP:  83; 6HR MAX TEMP:  89;

SPARTA         MOSUNNY   82  65  55 W10       29.91S HX  84
VIROQUA        MOSUNNY   81  64  57 NW12G17   29.94S HX  82
BOSCOBEL       CLOUDY    82  67  60 W6        29.91S HX  84
6HR MIN TEMP:  82; 6HR MAX TEMP:  92;

PRAIRIE DU CHI CLOUDY    80  64  58 W5        29.91S HX  82
PLATTEVILLE    SUNNY     82  72  71 W9G16     29.92R HX  87
$$

WIZ056-057-062-063-064-067-068-250100-
SOUTH CENTRAL WISCONSIN

CITY           SKY/WX    TMP DP  RH WIND       PRES   REMARKS
REEDSBURG      MOSUNNY   83  69  62 W9G16     29.89R HX  87
BARABOO/DELLS  MOSUNNY   83  65  53 NW10      29.89R HX  85
LONE ROCK      NOT AVBL
MINERAL POINT  MOSUNNY   82  70  65 W8        29.92R HX  86
MADISON        PTSUNNY   86  71  60 NW12G20   29.86R HX  91
6HR MIN TEMP:  85; 6HR MAX TEMP:  90;

MIDDLETON      SUNNY     85  72  65 NW12      29.88R HX  90
WATERTOWN      MOSUNNY   87  77  72 W9        29.84S HX  98
MONROE         MOSUNNY   86  77  74 W12G20    29.87F HX  97
JANESVILLE     PTSUNNY   91  77  62 W9        29.84F HX 105
$$

WIZ051-052-058>065-066-070>072-250100-
SOUTHEAST WISCONSIN

CITY           SKY/WX    TMP DP  RH WIND       PRES   REMARKS
MILWAUKEE      CLOUDY    92  77  61 W13G21    29.81S HX 105
6HR MIN TEMP:  88; 6HR MAX TEMP:  94; 6HR PCP: TRACE;

WAUKESHA       MOSUNNY   86  75  70 W17       29.84S HX  95
MILWAUKEE/TIMM NOT AVBL
RACINE         CLOUDY    86  75  69 SW5       29.83F HX  95
6HR MIN TEMP:  80; 6HR MAX TEMP:  89; 6HR PCP:  0.12;

BURLINGTON     CLOUDY    88  78  72 W7        29.83S HX 101
KENOSHA        CLOUDY    90  77  65 W12       29.84S HX 103
6HR MIN TEMP:  81; 6HR MAX TEMP:  95; 6HR PCP:  0.09;

FOND DU LAC    SUNNY     86  73  65 W10       29.84R HX  93
6HR MIN TEMP:  83; 6HR MAX TEMP:  90; 6HR PCP: TRACE;

SHEBOYGAN      MOSUNNY   87  75  67 W8        29.81R HX  96
6HR MIN TEMP:  74; 6HR MAX TEMP:  89;

WEST BEND      MOSUNNY   88  72  58 W10       29.83S HX  94
JUNEAU         MOSUNNY   86  73  65 W7        29.86R HX  93
$$

LSZ147-162-250100-
LAKE SUPERIOR

STATION/POSITION TIME  TEMP    WIND        PRES    WAVE
                       AIR SEA DIR/SP/G            HT/PER
                 (UTC) (F)     (DEG/KT/KT) (MB)    (FT/S)
W MID LAKE BUOY  2250   65 58  250/ 14/ 16 1007.3R   2/ 4
DEVILS ISLAND    2300   68     250/ 16/ 19 1008.9R
SAXON HARBOR     2340   81     280/  8/ 16 1010.2R
$$

LMZ867-665-643>646-250100-
LAKE MICHIGAN

STATION/POSITION TIME  TEMP    WIND        PRES    WAVE
                       AIR SEA DIR/SP/G            HT/PER
                 (UTC) (F)     (DEG/KT/KT) (MB)    (FT/S)
CHAMBERS ISLAND  2300   79     170/  6/ 11 1007.8S
S GREEN BAY BUOY 2300   79 76  260/  6/  8   N/A
N MID LAKE BUOY  2250   70 68  210/ 16/ 17 1007.3F   4/ 5
NORTHPORT PIER   2300   76     150/  7/ 11 1007.8S
KEWAUNEE LAKESHO 2300   71                   N/A
SHEBOYGAN LAKESH 2300   71     180/  4/  5 1009.0R
PORT WASHINGTON  2300   92     250/  6/ 16 1009.8
MILWAUKEE LAKESH 2310   90     260/ 13/ 19   N/A
S MID LAKE BUOY  2250   78 72  200/ 10/ 12 1009.5R   2/ 4
KENOSHA   LAKESH 2300   72     170/  8/ 10 1009.5F
$$

TC  - TEMPERATURE IN CELSIUS
VSB - VISIBILITY IN STATUTE MILES
WCI - WIND CHILL INDEX
HX  - HEAT INDEX




USA.gov is the U.S. government's official web portal to all federal, state and local government web resources and services.